Year,Month,Day,Hour,Minute,Value (Times are PST for temperature in C)
2006,10,14,00,00,8.20
2006,10,14,00,01,8.20
2006,10,14,00,02,8.20
2006,10,14,00,03,8.20
2006,10,14,00,04,8.20
2006,10,14,00,05,8.20
2006,10,14,00,06,8.20
2006,10,14,00,07,8.10
2006,10,14,00,08,8.10
2006,10,14,00,09,8.10
2006,10,14,00,10,8.10
2006,10,14,00,11,8.20
2006,10,14,00,12,8.20
2006,10,14,00,13,8.20
2006,10,14,00,14,8.30
2006,10,14,00,15,8.30
2006,10,14,00,16,8.30
2006,10,14,00,17,8.30
2006,10,14,00,18,8.30
2006,10,14,00,19,8.40
2006,10,14,00,20,8.40
2006,10,14,00,21,8.30
2006,10,14,00,22,8.30
2006,10,14,00,23,8.30
2006,10,14,00,24,8.30
2006,10,14,00,25,8.30
2006,10,14,00,26,8.30
2006,10,14,00,27,8.30
2006,10,14,00,28,8.30
2006,10,14,00,29,8.30
2006,10,14,00,30,8.30
2006,10,14,00,31,8.30
2006,10,14,00,32,8.30
2006,10,14,00,33,8.30
2006,10,14,00,34,8.30
2006,10,14,00,35,8.30
2006,10,14,00,36,8.30
2006,10,14,00,37,8.30
2006,10,14,00,38,8.30
2006,10,14,00,39,8.30
2006,10,14,00,40,8.30
2006,10,14,00,41,8.30
2006,10,14,00,42,8.30
2006,10,14,00,43,8.20
2006,10,14,00,44,8.20
2006,10,14,00,45,8.20
2006,10,14,00,46,8.20
2006,10,14,00,47,8.20
2006,10,14,00,48,8.20
2006,10,14,00,49,8.10
2006,10,14,00,50,8.10
2006,10,14,00,51,8.10
2006,10,14,00,52,8.10
2006,10,14,00,53,8.10
2006,10,14,00,54,8.10
2006,10,14,00,55,8.10
2006,10,14,00,56,8.10
2006,10,14,00,57,8.10
2006,10,14,00,58,8.20
2006,10,14,00,59,8.20
2006,10,14,01,00,8.20
2006,10,14,01,01,8.20
2006,10,14,01,02,8.20
2006,10,14,01,03,8.20
2006,10,14,01,04,8.20
2006,10,14,01,05,8.20
2006,10,14,01,06,8.20
2006,10,14,01,07,8.10
2006,10,14,01,08,8.10
2006,10,14,01,09,8.10
2006,10,14,01,10,8.10
2006,10,14,01,11,8.10
2006,10,14,01,12,8.10
2006,10,14,01,13,8.10
2006,10,14,01,14,8.10
2006,10,14,01,15,8.10
2006,10,14,01,16,8.10
2006,10,14,01,17,8.10
2006,10,14,01,18,8.10
2006,10,14,01,19,8.10
2006,10,14,01,20,8.10
2006,10,14,01,21,8.10
2006,10,14,01,22,8.10
2006,10,14,01,23,8.10
2006,10,14,01,24,8.10
2006,10,14,01,25,8.10
2006,10,14,01,26,8.10
2006,10,14,01,27,8.10
2006,10,14,01,28,8.10
2006,10,14,01,29,8.10
2006,10,14,01,30,8.20
2006,10,14,01,31,8.20
2006,10,14,01,32,8.20
2006,10,14,01,33,8.20
2006,10,14,01,34,8.20
2006,10,14,01,35,8.20
2006,10,14,01,36,8.20
2006,10,14,01,37,8.20
2006,10,14,01,38,8.20
2006,10,14,01,39,8.20
2006,10,14,01,40,8.20
2006,10,14,01,41,8.20
2006,10,14,01,42,8.20
2006,10,14,01,43,8.20
2006,10,14,01,44,8.20
2006,10,14,01,45,8.20
2006,10,14,01,46,8.20
2006,10,14,01,47,8.20
2006,10,14,01,48,8.20
2006,10,14,01,49,8.20
2006,10,14,01,50,8.20
2006,10,14,01,51,8.20
2006,10,14,01,52,8.20
2006,10,14,01,53,8.20
2006,10,14,01,54,8.20
2006,10,14,01,55,8.20
2006,10,14,01,56,8.30
2006,10,14,01,57,8.30
2006,10,14,01,58,8.30
2006,10,14,01,59,8.30
2006,10,14,02,00,8.30
2006,10,14,02,01,8.30
2006,10,14,02,02,8.30
2006,10,14,02,03,8.30
2006,10,14,02,04,8.30
2006,10,14,02,05,8.30
2006,10,14,02,06,8.30
2006,10,14,02,07,8.30
2006,10,14,02,08,8.30
2006,10,14,02,09,8.30
2006,10,14,02,10,8.30
2006,10,14,02,11,8.20
2006,10,14,02,12,8.20
2006,10,14,02,13,8.20
2006,10,14,02,14,8.20
2006,10,14,02,15,8.20
2006,10,14,02,16,8.20
2006,10,14,02,17,8.20
2006,10,14,02,18,8.20
2006,10,14,02,19,8.20
2006,10,14,02,20,8.20
2006,10,14,02,21,8.20
2006,10,14,02,22,8.20
2006,10,14,02,23,8.20
2006,10,14,02,24,8.20
2006,10,14,02,25,8.20
2006,10,14,02,26,8.20
2006,10,14,02,27,8.20
2006,10,14,02,28,8.20
2006,10,14,02,29,8.20
2006,10,14,02,30,8.20
2006,10,14,02,31,8.20
2006,10,14,02,32,8.20
2006,10,14,02,33,8.10
2006,10,14,02,34,8.10
2006,10,14,02,35,8.10
2006,10,14,02,36,8.10
2006,10,14,02,37,8.00
2006,10,14,02,38,8.00
2006,10,14,02,39,8.00
2006,10,14,02,40,8.00
2006,10,14,02,41,8.00
2006,10,14,02,42,8.00
2006,10,14,02,43,7.90
2006,10,14,02,44,7.90
2006,10,14,02,45,7.90
2006,10,14,02,46,7.90
2006,10,14,02,47,7.90
2006,10,14,02,48,7.90
2006,10,14,02,49,7.90
2006,10,14,02,50,7.90
2006,10,14,02,51,7.80
2006,10,14,02,52,7.80
2006,10,14,02,53,7.80
2006,10,14,02,54,7.80
2006,10,14,02,55,7.80
2006,10,14,02,56,7.80
2006,10,14,02,57,7.80
2006,10,14,02,58,7.80
2006,10,14,02,59,7.80
2006,10,14,03,00,7.80
2006,10,14,03,01,7.80
2006,10,14,03,02,7.80
2006,10,14,03,03,7.80
2006,10,14,03,04,7.80
2006,10,14,03,05,7.80
2006,10,14,03,06,7.80
2006,10,14,03,07,7.80
2006,10,14,03,08,7.80
2006,10,14,03,09,7.80
2006,10,14,03,10,7.80
2006,10,14,03,11,7.80
2006,10,14,03,12,7.90
2006,10,14,03,13,7.90
2006,10,14,03,14,7.90
2006,10,14,03,15,7.90
2006,10,14,03,16,7.90
2006,10,14,03,17,7.90
2006,10,14,03,18,7.90
2006,10,14,03,19,7.90
2006,10,14,03,20,7.90
2006,10,14,03,21,7.90
2006,10,14,03,22,7.90
2006,10,14,03,23,7.90
2006,10,14,03,24,7.90
2006,10,14,03,25,7.90
2006,10,14,03,26,7.80
2006,10,14,03,27,7.80
2006,10,14,03,28,7.80
2006,10,14,03,29,7.80
2006,10,14,03,30,7.80
2006,10,14,03,31,7.80
2006,10,14,03,32,7.80
2006,10,14,03,33,7.80
2006,10,14,03,34,7.80
2006,10,14,03,35,7.80
2006,10,14,03,36,7.80
2006,10,14,03,37,7.80
2006,10,14,03,38,7.70
2006,10,14,03,39,7.70
2006,10,14,03,40,7.70
2006,10,14,03,41,7.80
2006,10,14,03,42,7.80
2006,10,14,03,43,7.80
2006,10,14,03,44,7.70
2006,10,14,03,45,7.70
2006,10,14,03,46,7.70
2006,10,14,03,47,7.70
2006,10,14,03,48,7.70
2006,10,14,03,49,7.70
2006,10,14,03,50,7.70
2006,10,14,03,51,7.70
2006,10,14,03,52,7.70
2006,10,14,03,53,7.70
2006,10,14,03,54,7.70
2006,10,14,03,55,7.60
2006,10,14,03,56,7.60
2006,10,14,03,57,7.60
2006,10,14,03,58,7.60
2006,10,14,03,59,7.60
2006,10,14,04,00,7.50
2006,10,14,04,01,7.50
2006,10,14,04,02,7.50
2006,10,14,04,03,7.50
2006,10,14,04,04,7.40
2006,10,14,04,05,7.40
2006,10,14,04,06,7.40
2006,10,14,04,07,7.40
2006,10,14,04,08,7.40
2006,10,14,04,09,7.40
2006,10,14,04,10,7.40
2006,10,14,04,11,7.40
2006,10,14,04,12,7.30
2006,10,14,04,13,7.30
2006,10,14,04,14,7.30
2006,10,14,04,15,7.30
2006,10,14,04,16,7.30
2006,10,14,04,17,7.30
2006,10,14,04,18,7.30
2006,10,14,04,19,7.30
2006,10,14,04,20,7.30
2006,10,14,04,21,7.40
2006,10,14,04,22,7.40
2006,10,14,04,23,7.40
2006,10,14,04,24,7.40
2006,10,14,04,25,7.40
2006,10,14,04,26,7.40
2006,10,14,04,27,7.40
2006,10,14,04,28,7.40
2006,10,14,04,29,7.40
2006,10,14,04,30,7.40
2006,10,14,04,31,7.40
2006,10,14,04,32,7.40
2006,10,14,04,33,7.40
2006,10,14,04,34,7.40
2006,10,14,04,35,7.40
2006,10,14,04,36,7.40
2006,10,14,04,37,7.40
2006,10,14,04,38,7.40
2006,10,14,04,39,7.40
2006,10,14,04,40,7.40
2006,10,14,04,41,7.40
2006,10,14,04,42,7.40
2006,10,14,04,43,7.40
2006,10,14,04,44,7.40
2006,10,14,04,45,7.50
2006,10,14,04,46,7.50
2006,10,14,04,47,7.50
2006,10,14,04,48,7.50
2006,10,14,04,49,7.50
2006,10,14,04,50,7.50
2006,10,14,04,51,7.40
2006,10,14,04,52,7.40
2006,10,14,04,53,7.50
2006,10,14,04,54,7.50
2006,10,14,04,55,7.50
2006,10,14,04,56,7.50
2006,10,14,04,57,7.50
2006,10,14,04,58,7.40
2006,10,14,04,59,7.40
2006,10,14,05,00,7.40
2006,10,14,05,01,7.40
2006,10,14,05,02,7.40
2006,10,14,05,03,7.40
2006,10,14,05,04,7.50
2006,10,14,05,05,7.50
2006,10,14,05,06,7.50
2006,10,14,05,07,7.50
2006,10,14,05,08,7.60
2006,10,14,05,09,7.60
2006,10,14,05,10,7.60
2006,10,14,05,11,7.60
2006,10,14,05,12,7.60
2006,10,14,05,13,7.60
2006,10,14,05,14,7.60
2006,10,14,05,15,7.60
2006,10,14,05,16,7.60
2006,10,14,05,17,7.60
2006,10,14,05,18,7.60
2006,10,14,05,19,7.60
2006,10,14,05,20,7.60
2006,10,14,05,21,7.60
2006,10,14,05,22,7.60
2006,10,14,05,23,7.60
2006,10,14,05,24,7.60
2006,10,14,05,25,7.60
2006,10,14,05,26,7.60
2006,10,14,05,27,7.60
2006,10,14,05,28,7.60
2006,10,14,05,29,7.60
2006,10,14,05,30,7.60
2006,10,14,05,31,7.60
2006,10,14,05,32,7.60
2006,10,14,05,33,7.60
2006,10,14,05,34,7.60
2006,10,14,05,35,7.60
2006,10,14,05,36,7.60
2006,10,14,05,37,7.60
2006,10,14,05,38,7.60
2006,10,14,05,39,7.50
2006,10,14,05,40,7.50
2006,10,14,05,41,7.50
2006,10,14,05,42,7.50
2006,10,14,05,43,7.50
2006,10,14,05,44,7.50
2006,10,14,05,45,7.50
2006,10,14,05,46,7.60
2006,10,14,05,47,7.60
2006,10,14,05,48,7.50
2006,10,14,05,49,7.50
2006,10,14,05,50,7.50
2006,10,14,05,51,7.50
2006,10,14,05,52,7.50
2006,10,14,05,53,7.50
2006,10,14,05,54,7.40
2006,10,14,05,55,7.40
2006,10,14,05,56,7.40
2006,10,14,05,57,7.40
2006,10,14,05,58,7.40
2006,10,14,05,59,7.40
2006,10,14,06,00,7.40
2006,10,14,06,01,7.40
2006,10,14,06,02,7.40
2006,10,14,06,03,7.40
2006,10,14,06,04,7.40
2006,10,14,06,05,7.40
2006,10,14,06,06,7.40
2006,10,14,06,07,7.40
2006,10,14,06,08,7.40
2006,10,14,06,09,7.40
2006,10,14,06,10,7.40
2006,10,14,06,11,7.40
2006,10,14,06,12,7.40
2006,10,14,06,13,7.30
2006,10,14,06,14,7.30
2006,10,14,06,15,7.30
2006,10,14,06,16,7.30
2006,10,14,06,17,7.30
2006,10,14,06,18,7.30
2006,10,14,06,19,7.30
2006,10,14,06,20,7.20
2006,10,14,06,21,7.20
2006,10,14,06,22,7.20
2006,10,14,06,23,7.20
2006,10,14,06,24,7.20
2006,10,14,06,25,7.20
2006,10,14,06,26,7.20
2006,10,14,06,27,7.20
2006,10,14,06,28,7.20
2006,10,14,06,29,7.20
2006,10,14,06,30,7.20
2006,10,14,06,31,7.20
2006,10,14,06,32,7.20
2006,10,14,06,33,7.10
2006,10,14,06,34,7.10
2006,10,14,06,35,7.10
2006,10,14,06,36,7.10
2006,10,14,06,37,7.10
2006,10,14,06,38,7.10
2006,10,14,06,39,7.20
2006,10,14,06,40,7.20
2006,10,14,06,41,7.20
2006,10,14,06,42,7.20
2006,10,14,06,43,7.20
2006,10,14,06,44,7.20
2006,10,14,06,45,7.20
2006,10,14,06,46,7.20
2006,10,14,06,47,7.20
2006,10,14,06,48,7.20
2006,10,14,06,49,7.20
2006,10,14,06,50,7.30
2006,10,14,06,51,7.30
2006,10,14,06,52,7.30
2006,10,14,06,53,7.30
2006,10,14,06,54,7.30
2006,10,14,06,55,7.30
2006,10,14,06,56,7.30
2006,10,14,06,57,7.30
2006,10,14,06,58,7.30
2006,10,14,06,59,7.30
2006,10,14,07,00,7.30
2006,10,14,07,01,7.30
2006,10,14,07,02,7.20
2006,10,14,07,03,7.20
2006,10,14,07,04,7.20
2006,10,14,07,05,7.20
2006,10,14,07,06,7.20
2006,10,14,07,07,7.20
2006,10,14,07,08,7.20
2006,10,14,07,09,7.20
2006,10,14,07,10,7.20
2006,10,14,07,11,7.20
2006,10,14,07,12,7.20
2006,10,14,07,13,7.20
2006,10,14,07,14,7.20
2006,10,14,07,15,7.20
2006,10,14,07,16,7.10
2006,10,14,07,17,7.10
2006,10,14,07,18,7.10
2006,10,14,07,19,7.10
2006,10,14,07,20,7.10
2006,10,14,07,21,7.10
2006,10,14,07,22,7.10
2006,10,14,07,23,7.10
2006,10,14,07,24,7.10
2006,10,14,07,25,7.10
2006,10,14,07,26,7.10
2006,10,14,07,27,7.10
2006,10,14,07,28,7.10
2006,10,14,07,29,7.00
2006,10,14,07,30,7.00
2006,10,14,07,31,7.00
2006,10,14,07,32,7.00
2006,10,14,07,33,7.00
2006,10,14,07,34,7.00
2006,10,14,07,35,6.90
2006,10,14,07,36,6.90
2006,10,14,07,37,6.90
2006,10,14,07,38,6.90
2006,10,14,07,39,6.90
2006,10,14,07,40,6.90
2006,10,14,07,41,6.90
2006,10,14,07,42,6.90
2006,10,14,07,43,6.90
2006,10,14,07,44,6.90
2006,10,14,07,45,7.00
2006,10,14,07,46,7.00
2006,10,14,07,47,7.00
2006,10,14,07,48,7.00
2006,10,14,07,49,7.10
2006,10,14,07,50,7.10
2006,10,14,07,51,7.10
2006,10,14,07,52,7.10
2006,10,14,07,53,7.10
2006,10,14,07,54,7.10
2006,10,14,07,55,7.10
2006,10,14,07,56,7.20
2006,10,14,07,57,7.20
2006,10,14,07,58,7.20
2006,10,14,07,59,7.20
2006,10,14,08,00,7.20
2006,10,14,08,01,7.20
2006,10,14,08,02,7.20
2006,10,14,08,03,7.20
2006,10,14,08,04,7.20
2006,10,14,08,05,7.20
2006,10,14,08,06,7.20
2006,10,14,08,07,7.20
2006,10,14,08,08,7.20
2006,10,14,08,09,7.20
2006,10,14,08,10,7.20
2006,10,14,08,11,7.20
2006,10,14,08,12,7.20
2006,10,14,08,13,7.30
2006,10,14,08,14,7.30
2006,10,14,08,15,7.30
2006,10,14,08,16,7.30
2006,10,14,08,17,7.40
2006,10,14,08,18,7.40
2006,10,14,08,19,7.40
2006,10,14,08,20,7.50
2006,10,14,08,21,7.50
2006,10,14,08,22,7.50
2006,10,14,08,23,7.60
2006,10,14,08,24,7.60
2006,10,14,08,25,7.60
2006,10,14,08,26,7.60
2006,10,14,08,27,7.70
2006,10,14,08,28,7.70
2006,10,14,08,29,7.70
2006,10,14,08,30,7.70
2006,10,14,08,31,7.70
2006,10,14,08,32,7.70
2006,10,14,08,33,7.70
2006,10,14,08,34,7.70
2006,10,14,08,35,7.70
2006,10,14,08,36,7.80
2006,10,14,08,37,7.80
2006,10,14,08,38,7.80
2006,10,14,08,39,7.80
2006,10,14,08,40,7.80
2006,10,14,08,41,7.80
2006,10,14,08,42,7.80
2006,10,14,08,43,7.80
2006,10,14,08,44,7.80
2006,10,14,08,45,7.80
2006,10,14,08,46,7.80
2006,10,14,08,47,7.80
2006,10,14,08,48,7.80
2006,10,14,08,49,7.80
2006,10,14,08,50,7.80
2006,10,14,08,51,7.80
2006,10,14,08,52,7.80
2006,10,14,08,53,7.80
2006,10,14,08,54,7.80
2006,10,14,08,55,7.80
2006,10,14,08,56,7.90
2006,10,14,08,57,7.90
2006,10,14,08,58,7.90
2006,10,14,08,59,7.90
2006,10,14,09,00,7.90
2006,10,14,09,01,7.90
2006,10,14,09,02,7.90
2006,10,14,09,03,7.90
2006,10,14,09,04,7.90
2006,10,14,09,05,7.90
2006,10,14,09,06,7.90
2006,10,14,09,07,7.90
2006,10,14,09,08,7.90
2006,10,14,09,09,7.80
2006,10,14,09,10,7.80
2006,10,14,09,11,7.80
2006,10,14,09,12,7.80
2006,10,14,09,13,7.80
2006,10,14,09,14,7.80
2006,10,14,09,15,7.80
2006,10,14,09,16,7.90
2006,10,14,09,17,7.80
2006,10,14,09,18,7.80
2006,10,14,09,19,7.80
2006,10,14,09,20,7.80
2006,10,14,09,21,7.80
2006,10,14,09,22,7.80
2006,10,14,09,23,7.90
2006,10,14,09,24,7.90
2006,10,14,09,25,7.90
2006,10,14,09,26,8.00
2006,10,14,09,27,8.00
2006,10,14,09,28,8.00
2006,10,14,09,29,8.00
2006,10,14,09,30,8.00
2006,10,14,09,31,8.00
2006,10,14,09,32,8.00
2006,10,14,09,33,8.00
2006,10,14,09,34,7.90
2006,10,14,09,35,7.90
2006,10,14,09,36,7.90
2006,10,14,09,37,7.90
2006,10,14,09,38,8.00
2006,10,14,09,39,8.00
2006,10,14,09,40,8.10
2006,10,14,09,41,8.10
2006,10,14,09,42,8.10
2006,10,14,09,43,8.10
2006,10,14,09,44,8.10
2006,10,14,09,45,8.10
2006,10,14,09,46,8.10
2006,10,14,09,47,8.10
2006,10,14,09,48,8.10
2006,10,14,09,49,8.10
2006,10,14,09,50,8.10
2006,10,14,09,51,8.20
2006,10,14,09,52,8.20
2006,10,14,09,53,8.30
2006,10,14,09,54,8.30
2006,10,14,09,55,8.40
2006,10,14,09,56,8.40
2006,10,14,09,57,8.40
2006,10,14,09,58,8.40
2006,10,14,09,59,8.40
2006,10,14,10,00,8.40
2006,10,14,10,01,8.40
2006,10,14,10,02,8.40
2006,10,14,10,03,8.40
2006,10,14,10,04,8.40
2006,10,14,10,05,8.50
2006,10,14,10,06,8.50
2006,10,14,10,07,8.50
2006,10,14,10,08,8.50
2006,10,14,10,09,8.50
2006,10,14,10,10,8.50
2006,10,14,10,11,8.50
2006,10,14,10,12,8.50
2006,10,14,10,13,8.50
2006,10,14,10,14,8.50
2006,10,14,10,15,8.50
2006,10,14,10,16,8.50
2006,10,14,10,17,8.60
2006,10,14,10,18,8.60
2006,10,14,10,19,8.60
2006,10,14,10,20,8.60
2006,10,14,10,21,8.60
2006,10,14,10,22,8.70
2006,10,14,10,23,8.70
2006,10,14,10,24,8.70
2006,10,14,10,25,8.60
2006,10,14,10,26,8.60
2006,10,14,10,27,8.60
2006,10,14,10,28,8.60
2006,10,14,10,29,8.60
2006,10,14,10,30,8.60
2006,10,14,10,31,8.60
2006,10,14,10,32,8.60
2006,10,14,10,33,8.60
2006,10,14,10,34,8.60
2006,10,14,10,35,8.60
2006,10,14,10,36,8.60
2006,10,14,10,37,8.70
2006,10,14,10,38,8.60
2006,10,14,10,39,8.60
2006,10,14,10,40,8.60
2006,10,14,10,41,8.60
2006,10,14,10,42,8.70
2006,10,14,10,43,8.70
2006,10,14,10,44,8.70
2006,10,14,10,45,8.70
2006,10,14,10,46,8.70
2006,10,14,10,47,8.70
2006,10,14,10,48,8.70
2006,10,14,10,49,8.70
2006,10,14,10,50,8.70
2006,10,14,10,51,8.70
2006,10,14,10,52,8.80
2006,10,14,10,53,8.80
2006,10,14,10,54,8.80
2006,10,14,10,55,8.90
2006,10,14,10,56,8.90
2006,10,14,10,57,8.90
2006,10,14,10,58,8.90
2006,10,14,10,59,9.00
2006,10,14,11,00,9.00
2006,10,14,11,01,9.00
2006,10,14,11,02,9.10
2006,10,14,11,03,9.10
2006,10,14,11,04,9.00
2006,10,14,11,05,9.00
2006,10,14,11,06,9.00
2006,10,14,11,07,9.00
2006,10,14,11,08,9.00
2006,10,14,11,09,9.00
2006,10,14,11,10,9.00
2006,10,14,11,11,9.10
2006,10,14,11,12,9.10
2006,10,14,11,13,9.10
2006,10,14,11,14,9.20
2006,10,14,11,15,9.20
2006,10,14,11,16,9.30
2006,10,14,11,17,9.30
2006,10,14,11,18,9.30
2006,10,14,11,19,9.30
2006,10,14,11,20,9.30
2006,10,14,11,21,9.30
2006,10,14,11,22,9.30
2006,10,14,11,23,9.30
2006,10,14,11,24,9.30
2006,10,14,11,25,9.30
2006,10,14,11,26,9.30
2006,10,14,11,27,9.30
2006,10,14,11,28,9.30
2006,10,14,11,29,9.30
2006,10,14,11,30,9.30
2006,10,14,11,31,9.40
2006,10,14,11,32,9.40
2006,10,14,11,33,9.50
2006,10,14,11,34,9.50
2006,10,14,11,35,9.50
2006,10,14,11,36,9.50
2006,10,14,11,37,9.50
2006,10,14,11,38,9.50
2006,10,14,11,39,9.60
2006,10,14,11,40,9.60
2006,10,14,11,41,9.60
2006,10,14,11,42,9.70
2006,10,14,11,43,9.70
2006,10,14,11,44,9.80
2006,10,14,11,45,9.80
2006,10,14,11,46,9.90
2006,10,14,11,47,9.90
2006,10,14,11,48,9.90
2006,10,14,11,49,10.00
2006,10,14,11,50,10.00
2006,10,14,11,51,10.10
2006,10,14,11,52,10.10
2006,10,14,11,53,10.20
2006,10,14,11,54,10.20
2006,10,14,11,55,10.20
2006,10,14,11,56,10.20
2006,10,14,11,57,10.20
2006,10,14,11,58,10.30
2006,10,14,11,59,10.30
2006,10,14,12,00,10.30
2006,10,14,12,01,10.30
2006,10,14,12,02,10.30
2006,10,14,12,03,10.30
2006,10,14,12,04,10.30
2006,10,14,12,05,10.30
2006,10,14,12,06,10.40
2006,10,14,12,07,10.40
2006,10,14,12,08,10.40
2006,10,14,12,09,10.50
2006,10,14,12,10,10.50
2006,10,14,12,11,10.60
2006,10,14,12,12,10.60
2006,10,14,12,13,10.60
2006,10,14,12,14,10.70
2006,10,14,12,15,10.70
2006,10,14,12,16,10.70
2006,10,14,12,17,10.80
2006,10,14,12,18,10.80
2006,10,14,12,19,10.80
2006,10,14,12,20,10.80
2006,10,14,12,21,10.90
2006,10,14,12,22,10.90
2006,10,14,12,23,11.00
2006,10,14,12,24,11.00
2006,10,14,12,25,11.00
2006,10,14,12,26,11.10
2006,10,14,12,27,11.10
2006,10,14,12,28,11.10
2006,10,14,12,29,11.10
2006,10,14,12,30,11.10
2006,10,14,12,31,11.10
2006,10,14,12,32,11.10
2006,10,14,12,33,11.10
2006,10,14,12,34,11.10
2006,10,14,12,35,11.10
2006,10,14,12,36,11.10
2006,10,14,12,37,11.20
2006,10,14,12,38,11.20
2006,10,14,12,39,11.30
2006,10,14,12,40,11.30
2006,10,14,12,41,11.30
2006,10,14,12,42,11.40
2006,10,14,12,43,11.40
2006,10,14,12,44,11.40
2006,10,14,12,45,11.40
2006,10,14,12,46,11.30
2006,10,14,12,47,11.30
2006,10,14,12,48,11.20
2006,10,14,12,49,11.10
2006,10,14,12,50,11.00
2006,10,14,12,51,10.90
2006,10,14,12,52,10.80
2006,10,14,12,53,10.70
2006,10,14,12,54,10.60
2006,10,14,12,55,10.60
2006,10,14,12,56,10.50
2006,10,14,12,57,10.40
2006,10,14,12,58,10.40
2006,10,14,12,59,10.30
2006,10,14,13,00,10.30
2006,10,14,13,01,10.30
2006,10,14,13,02,10.30
2006,10,14,13,03,10.30
2006,10,14,13,04,10.30
2006,10,14,13,05,10.30
2006,10,14,13,06,10.30
2006,10,14,13,07,10.30
2006,10,14,13,08,10.30
2006,10,14,13,09,10.30
2006,10,14,13,10,10.30
2006,10,14,13,11,10.30
2006,10,14,13,12,10.40
2006,10,14,13,13,10.40
2006,10,14,13,14,10.40
2006,10,14,13,15,10.40
2006,10,14,13,16,10.40
2006,10,14,13,17,10.40
2006,10,14,13,18,10.40
2006,10,14,13,19,10.40
2006,10,14,13,20,10.40
2006,10,14,13,21,10.40
2006,10,14,13,22,10.40
2006,10,14,13,23,10.40
2006,10,14,13,24,10.40
2006,10,14,13,25,10.40
2006,10,14,13,26,10.40
2006,10,14,13,27,10.40
2006,10,14,13,28,10.40
2006,10,14,13,29,10.40
2006,10,14,13,30,10.40
2006,10,14,13,31,10.40
2006,10,14,13,32,10.40
2006,10,14,13,33,10.40
2006,10,14,13,34,10.40
2006,10,14,13,35,10.50
2006,10,14,13,36,10.50
2006,10,14,13,37,10.50
2006,10,14,13,38,10.60
2006,10,14,13,39,10.60
2006,10,14,13,40,10.60
2006,10,14,13,41,10.60
2006,10,14,13,42,10.60
2006,10,14,13,43,10.70
2006,10,14,13,44,10.70
2006,10,14,13,45,10.70
2006,10,14,13,46,10.60
2006,10,14,13,47,10.60
2006,10,14,13,48,10.50
2006,10,14,13,49,10.40
2006,10,14,13,50,10.40
2006,10,14,13,51,10.30
2006,10,14,13,52,10.30
2006,10,14,13,53,10.30
2006,10,14,13,54,10.30
2006,10,14,13,55,10.30
2006,10,14,13,56,10.30
2006,10,14,13,57,10.20
2006,10,14,13,58,10.20
2006,10,14,13,59,10.20
2006,10,14,14,00,10.20
2006,10,14,14,01,10.20
2006,10,14,14,02,10.20
2006,10,14,14,03,10.20
2006,10,14,14,04,10.20
2006,10,14,14,05,10.20
2006,10,14,14,06,10.30
2006,10,14,14,07,10.30
2006,10,14,14,08,10.30
2006,10,14,14,09,10.30
2006,10,14,14,10,10.30
2006,10,14,14,11,10.30
2006,10,14,14,12,10.30
2006,10,14,14,13,10.30
2006,10,14,14,14,10.30
2006,10,14,14,15,10.40
2006,10,14,14,16,10.40
2006,10,14,14,17,10.40
2006,10,14,14,18,10.40
2006,10,14,14,19,10.40
2006,10,14,14,20,10.50
2006,10,14,14,21,10.50
2006,10,14,14,22,10.50
2006,10,14,14,23,10.50
2006,10,14,14,24,10.50
2006,10,14,14,25,10.40
2006,10,14,14,26,10.40
2006,10,14,14,27,10.40
2006,10,14,14,28,10.40
2006,10,14,14,29,10.40
2006,10,14,14,30,10.40
2006,10,14,14,31,10.40
2006,10,14,14,32,10.40
2006,10,14,14,33,10.40
2006,10,14,14,34,10.40
2006,10,14,14,35,10.40
2006,10,14,14,36,10.50
2006,10,14,14,37,10.50
2006,10,14,14,38,10.40
2006,10,14,14,39,10.40
2006,10,14,14,40,10.40
2006,10,14,14,41,10.40
2006,10,14,14,42,10.40
2006,10,14,14,43,10.40
2006,10,14,14,44,10.40
2006,10,14,14,45,10.40
2006,10,14,14,46,10.40
2006,10,14,14,47,10.40
2006,10,14,14,48,10.40
2006,10,14,14,49,10.40
2006,10,14,14,50,10.40
2006,10,14,14,51,10.50
2006,10,14,14,52,10.50
2006,10,14,14,53,10.50
2006,10,14,14,54,10.60
2006,10,14,14,55,10.60
2006,10,14,14,56,10.60
2006,10,14,14,57,10.60
2006,10,14,14,58,10.70
2006,10,14,14,59,10.70
2006,10,14,15,00,10.70
2006,10,14,15,01,10.60
2006,10,14,15,02,10.60
2006,10,14,15,03,10.60
2006,10,14,15,04,10.60
2006,10,14,15,05,10.60
2006,10,14,15,06,10.60
2006,10,14,15,07,10.60
2006,10,14,15,08,10.60
2006,10,14,15,09,10.50
2006,10,14,15,10,10.50
2006,10,14,15,11,10.50
2006,10,14,15,12,10.50
2006,10,14,15,13,10.60
2006,10,14,15,14,10.60
2006,10,14,15,15,10.70
2006,10,14,15,16,10.70
2006,10,14,15,17,10.70
2006,10,14,15,18,10.70
2006,10,14,15,19,10.70
2006,10,14,15,20,10.70
2006,10,14,15,21,10.70
2006,10,14,15,22,10.70
2006,10,14,15,23,10.60
2006,10,14,15,24,10.60
2006,10,14,15,25,10.50
2006,10,14,15,26,10.50
2006,10,14,15,27,10.40
2006,10,14,15,28,10.40
2006,10,14,15,29,10.40
2006,10,14,15,30,10.40
2006,10,14,15,31,10.30
2006,10,14,15,32,10.30
2006,10,14,15,33,10.30
2006,10,14,15,34,10.30
2006,10,14,15,35,10.30
2006,10,14,15,36,10.30
2006,10,14,15,37,10.30
2006,10,14,15,38,10.30
2006,10,14,15,39,10.30
2006,10,14,15,40,10.30
2006,10,14,15,41,10.30
2006,10,14,15,42,10.30
2006,10,14,15,43,10.30
2006,10,14,15,44,10.30
2006,10,14,15,45,10.40
2006,10,14,15,46,10.40
2006,10,14,15,47,10.40
2006,10,14,15,48,10.40
2006,10,14,15,49,10.50
2006,10,14,15,50,10.50
2006,10,14,15,51,10.40
2006,10,14,15,52,10.40
2006,10,14,15,53,10.40
2006,10,14,15,54,10.40
2006,10,14,15,55,10.40
2006,10,14,15,56,10.50
2006,10,14,15,57,10.40
2006,10,14,15,58,10.40
2006,10,14,15,59,10.40
2006,10,14,16,00,10.40
2006,10,14,16,01,10.40
2006,10,14,16,02,10.40
2006,10,14,16,03,10.30
2006,10,14,16,04,10.30
2006,10,14,16,05,10.30
2006,10,14,16,06,10.30
2006,10,14,16,07,10.30
2006,10,14,16,08,10.30
2006,10,14,16,09,10.30
2006,10,14,16,10,10.30
2006,10,14,16,11,10.20
2006,10,14,16,12,10.20
2006,10,14,16,13,10.20
2006,10,14,16,14,10.30
2006,10,14,16,15,10.30
2006,10,14,16,16,10.30
2006,10,14,16,17,10.30
2006,10,14,16,18,10.30
2006,10,14,16,19,10.30
2006,10,14,16,20,10.30
2006,10,14,16,21,10.30
2006,10,14,16,22,10.30
2006,10,14,16,23,10.30
2006,10,14,16,24,10.20
2006,10,14,16,25,10.20
2006,10,14,16,26,10.20
2006,10,14,16,27,10.20
2006,10,14,16,28,10.20
2006,10,14,16,29,10.10
2006,10,14,16,30,10.10
2006,10,14,16,31,10.10
2006,10,14,16,32,10.10
2006,10,14,16,33,10.10
2006,10,14,16,34,10.00
2006,10,14,16,35,10.00
2006,10,14,16,36,10.00
2006,10,14,16,37,10.00
2006,10,14,16,38,10.10
2006,10,14,16,39,10.10
2006,10,14,16,40,10.10
2006,10,14,16,41,10.10
2006,10,14,16,42,10.10
2006,10,14,16,43,10.10
2006,10,14,16,44,10.00
2006,10,14,16,45,10.00
2006,10,14,16,46,10.00
2006,10,14,16,47,10.00
2006,10,14,16,48,10.00
2006,10,14,16,49,10.00
2006,10,14,16,50,10.00
2006,10,14,16,51,10.10
2006,10,14,16,52,10.10
2006,10,14,16,53,10.10
2006,10,14,16,54,10.00
2006,10,14,16,55,10.00
2006,10,14,16,56,10.00
2006,10,14,16,57,10.00
2006,10,14,16,58,10.10
2006,10,14,16,59,10.10
2006,10,14,17,00,10.10
2006,10,14,17,01,10.10
2006,10,14,17,02,10.20
2006,10,14,17,03,10.20
2006,10,14,17,04,10.20
2006,10,14,17,05,10.20
2006,10,14,17,06,10.20
2006,10,14,17,07,10.20
2006,10,14,17,08,10.20
2006,10,14,17,09,10.20
2006,10,14,17,10,10.20
2006,10,14,17,11,10.20
2006,10,14,17,12,10.20
2006,10,14,17,13,10.20
2006,10,14,17,14,10.20
2006,10,14,17,15,10.20
2006,10,14,17,16,10.20
2006,10,14,17,17,10.20
2006,10,14,17,18,10.20
2006,10,14,17,19,10.20
2006,10,14,17,20,10.20
2006,10,14,17,21,10.20
2006,10,14,17,22,10.20
2006,10,14,17,23,10.20
2006,10,14,17,24,10.20
2006,10,14,17,25,10.20
2006,10,14,17,26,10.20
2006,10,14,17,27,10.20
2006,10,14,17,28,10.20
2006,10,14,17,29,10.30
2006,10,14,17,30,10.30
2006,10,14,17,31,10.30
2006,10,14,17,32,10.30
2006,10,14,17,33,10.30
2006,10,14,17,34,10.30
2006,10,14,17,35,10.30
2006,10,14,17,36,10.30
2006,10,14,17,37,10.30
2006,10,14,17,38,10.30
2006,10,14,17,39,10.30
2006,10,14,17,40,10.30
2006,10,14,17,41,10.30
2006,10,14,17,42,10.30
2006,10,14,17,43,10.30
2006,10,14,17,44,10.30
2006,10,14,17,45,10.40
2006,10,14,17,46,10.40
2006,10,14,17,47,10.40
2006,10,14,17,48,10.50
2006,10,14,17,49,10.50
2006,10,14,17,50,10.60